User: anonymous
Location: Caltech
(34.1382°N, 118.1253°W)
Time: 00:37:38
(UTC-07:00)
Language:

SPOT 1/Viking Rocket - Orbit

View from above orbital plane
View from above orbital plane
View from above satellite
View from above satellite

Ground track
Ground track

The orbit data is extracted from the following two-line orbital elements,

1 16615U 86019C   14242.79583259  .00000090  00000-0  51071-4 0  4705
2 16615 098.7514 294.4981 0012552 162.2998 311.1571 14.31296107493362
Epoch (UTC): 30 August 2014 19:05:59
Eccentricity: 0.0012552
inclination: 98.7514°
perigee height: 778 km
apogee height: 796 km
right ascension of ascending node: 294.4981°
argument of perigee: 162.2998°
revolutions per day: 14.31296107
mean anomaly at epoch: 311.1571°
orbit number at epoch: 49336

The dashed part of the orbit path shows where the satellite is in the earth's shadow,  

DLR